Burlington, CO

3:08 AM MDT on June 27, 2017 (GMT -0600)
Kit Carson County

Weather History for KITR - March, 2013

Change the Weather History Date:

Tuesday, March 5, 2013

  Actual Average Record
Temperature  
Mean Temperature 26 °F 36 °F  
Max Temperature 42 °F 51 °F 78 °F (1916)
Min Temperature 9 °F 22 °F -7 °F (1989)
Degree Days  
Heating Degree Days 40    
Moisture  
Dew Point 12 °F    
Average Humidity 62    
Maximum Humidity 78    
Minimum Humidity 35    
Precipitation  
Precipitation 0.00 in 0.03 in 0.37 in (1983)
Month to date precipitation 0.02 0.11  
Year to date precipitation 0.51 0.91  
Sea Level Pressure  
Sea Level Pressure 30.36 in    
Wind  
Wind Speed 11 mph (West)    
Max Wind Speed 16 mph    
Max Gust Speed -    
Visibility 10 miles    
Events      
T = Trace of Precipitation, MM = Missing Value Source: NWS Daily Summary

Daily Weather History Graph

Daily Weather History Graph

Search for Another Location

Airport or City:

Trip Planner

Search our weather history database for the weather conditions in past years. The results will help you decide how hot, cold, wet, or windy it might be!

Date:

Astronomy

Mar. 05, 2013 Rise Set
Actual Time 6:15 AM MST 5:46 PM MST
Civil Twilight 5:48 AM MST 6:12 PM MST
Nautical Twilight 5:17 AM MST 6:44 PM MST
Astronomical Twilight 4:46 AM MST 7:15 PM MST
Moon 1:28 AM MST (3/5) 11:29 AM MST (3/5)
Length of Visible Light 12h 24m
Length of Day
11h 30m
Last Quarter, 40% of the Moon is Illuminated
Mar 5
Last Quarter
Mar 11
New
Mar 19
First Quarter
Mar 27
Full
Apr 2
Last Quarter

Hourly Weather History & Observations

Time (MST) Temp. Windchill Dew Point Humidity Pressure Visibility Wind Dir Wind Speed Gust Speed Precip Events Conditions
12:53 AM 10.0 °F -2.9 °F 3.9 °F 76% 30.33 in 10.0 mi WNW 9.2 mph - N/A   Clear
1:53 AM 16.0 °F 0.6 °F 7.0 °F 68% 30.31 in 10.0 mi NNW 16.1 mph - N/A   Clear
2:53 AM 12.0 °F -3.4 °F 6.1 °F 77% 30.34 in 10.0 mi NW 13.8 mph - N/A   Clear
3:53 AM 12.9 °F -0.2 °F 6.1 °F 74% 30.36 in 10.0 mi WNW 10.4 mph - N/A   Clear
4:53 AM 12.9 °F -2.8 °F 6.1 °F 74% 30.37 in 10.0 mi NW 15.0 mph - N/A   Clear
6:53 AM 12.0 °F -1.3 °F 5.0 °F 73% 30.41 in 10.0 mi WNW 10.4 mph - N/A   Clear
7:53 AM 19.0 °F 5.0 °F 9.0 °F 65% 30.42 in 10.0 mi WNW 15.0 mph - N/A   Clear
8:53 AM 24.1 °F 11.0 °F 12.0 °F 60% 30.43 in 10.0 mi WNW 16.1 mph - N/A   Clear
9:53 AM 28.0 °F 17.5 °F 12.9 °F 53% 30.44 in 10.0 mi WNW 12.7 mph - N/A   Clear
10:53 AM 32.0 °F 22.1 °F 12.9 °F 45% 30.43 in 10.0 mi NW 13.8 mph - N/A   Clear
11:53 AM 34.0 °F 26.6 °F 14.0 °F 44% 30.42 in 10.0 mi NNW 9.2 mph - N/A   Clear
12:53 PM 37.0 °F 30.4 °F 14.0 °F 39% 30.39 in 10.0 mi NW 9.2 mph - N/A   Clear
2:53 PM 39.0 °F 36.8 °F 14.0 °F 36% 30.34 in 10.0 mi SSE 3.5 mph - N/A   Clear
3:53 PM 41.0 °F 37.1 °F 15.1 °F 35% 30.32 in 10.0 mi ESE 5.8 mph - N/A   Clear
4:53 PM 39.9 °F 35.8 °F 17.1 °F 40% 30.32 in 10.0 mi SSE 5.8 mph - N/A   Clear
5:53 PM 30.9 °F 25.2 °F 19.0 °F 61% 30.36 in 10.0 mi ESE 5.8 mph - N/A   Clear
6:53 PM 28.0 °F 20.0 °F 18.0 °F 66% 30.37 in 10.0 mi SE 8.1 mph - N/A   Clear
7:53 PM 23.0 °F 12.4 °F 17.1 °F 78% 30.37 in 10.0 mi SSE 10.4 mph - N/A   Clear
8:53 PM 23.0 °F 12.4 °F 16.0 °F 74% 30.34 in 10.0 mi SSE 10.4 mph - N/A   Clear
9:53 PM 21.9 °F 11.7 °F 16.0 °F 78% 30.33 in 10.0 mi SSE 9.2 mph - N/A   Clear
10:53 PM 23.0 °F 11.7 °F 16.0 °F 74% 30.30 in 10.0 mi SSE 11.5 mph - N/A   Clear
11:53 PM 21.0 °F 9.9 °F 15.1 °F 78% 30.28 in 10.0 mi SSE 10.4 mph - N/A   Clear